AB9HP Weather Reports


Display with metric or nautical units.
time (UTC)temp
F
wind
direction
speed
MPH
gust
MPH
rain 1hr
in
rain 24hr
in
rain mn
in
humidity
%
barometer
mb
20260503223038 48 159 0.0 10.0 0.00 0.03 0.03 83 1012.8
20260503221536 48 109 2.0 8.0 0.00 0.03 0.03 83 1012.9
20260503220031 48 125 3.0 10.0 0.02 0.03 0.03 83 1012.9
20260503214530 48 121 3.0 8.0 0.03 0.03 0.03 84 1013.2
20260503213027 48 152 2.0 10.0 0.03 0.03 0.03 84 1013.6
20260503211523 48 135 4.0 10.0 0.03 0.03 0.03 84 1013.9
20260503210018 48 196 2.0 11.0 0.02 0.02 0.02 83 1014.6
20260503204519 49 138 6.0 25.0 0.00 0.00 0.00 80 1015.2
20260503203014 51 251 3.0 26.0 0.00 0.00 0.00 77 1015.5
20260503201511 52 253 10.0 29.0 0.00 0.00 0.00 71 1015.4
20260503200010 54 223 15.0 31.0 0.00 0.00 0.00 67 1015.2
20260503194506 59 302 7.0 18.0 0.00 0.00 0.00 52 1014.9
20260503193005 59 245 15.0 29.0 0.00 0.00 0.00 50 1015.0
20260503191511 60 212 10.0 22.0 0.00 0.00 0.00 48 1015.0
20260503190004 60 219 7.0 22.0 0.00 0.00 0.00 47 1015.1
20260503184606 60 253 11.0 23.0 0.00 0.00 0.00 46 1015.3
20260503183058 60 212 9.0 22.0 0.00 0.00 0.00 45 1015.3
20260503181601 60 187 10.0 22.0 0.00 0.00 0.00 44 1015.6
20260503174550 60 221 11.0 22.0 0.00 0.00 0.00 42 1016.0
20260503173052 60 211 8.0 19.0 0.00 0.00 0.00 43 1016.2
20260503171544 60 252 8.0 19.0 0.00 0.00 0.00 42 1016.4
20260503081546 39 226 0.0 2.0 0.00 0.00 0.00 70 1017.9
20260503071546 39 183 0.0 0.0 0.00 0.00 0.00 69 1018.1
20260503054532 38 226 0.0 0.0 0.00 0.00 0.00 71 1018.7
20260503053025 38 217 0.0 0.0 0.00 0.00 0.00 71 1018.7
20260503051517 37 207 0.0 0.0 0.00 0.00 0.00 73 1018.7
20260503050013 37 250 0.0 0.0 0.00 0.00 0.00 76 1018.9
20260503044514 37 250 0.0 0.0 0.00 0.00 0.00 76 1018.9
20260503043030 37 250 0.0 0.0 0.00 0.00 0.00 75 1018.8
20260503041506 36 250 0.0 0.0 0.00 0.00 0.00 73 1018.8
20260503040002 38 250 0.0 0.0 0.00 0.00 0.00 71 1018.9
20260503034501 39 250 0.0 0.0 0.00 0.00 0.00 70 1018.9
20260503033100 40 250 0.0 0.0 0.00 0.00 0.00 69 1019.0
20260503031558 40 250 0.0 0.0 0.00 0.00 0.00 68 1018.9
20260503030104 41 250 0.0 0.0 0.00 0.00 0.00 67 1019.0
20260503024555 41 250 0.0 0.0 0.00 0.00 0.00 66 1018.9
20260503023101 41 250 0.0 0.0 0.00 0.00 0.00 64 1018.9
20260503021600 42 250 0.0 0.0 0.00 0.00 0.00 60 1019.0
20260503020057 44 250 0.0 0.0 0.00 0.00 0.00 58 1018.9
20260503014549 44 250 0.0 0.0 0.00 0.00 0.00 56 1018.9
20260503013047 45 264 0.0 0.0 0.00 0.00 0.00 54 1018.8
20260503011546 46 269 0.0 0.0 0.00 0.00 0.00 53 1018.6
20260503010045 46 270 0.0 0.0 0.00 0.00 0.00 52 1018.7
20260503004556 47 254 0.0 5.0 0.00 0.00 0.00 49 1018.7
20260503003140 48 311 0.0 6.0 0.00 0.00 0.00 46 1018.6
20260503001548 50 274 3.0 12.0 0.00 0.00 0.00 44 1018.5
20260503000038 50 234 2.0 11.0 0.00 0.00 0.00 45 1018.4
20260502234535 51 271 3.0 12.0 0.00 0.00 0.00 44 1018.4
20260502233035 51 297 2.0 12.0 0.00 0.00 0.00 44 1018.3
20260502231533 50 303 3.0 12.0 0.00 0.00 0.00 44 1018.3
20260502230031 50 292 2.0 10.0 0.00 0.00 0.00 44 1018.3
20260502224534 51 288 3.0 11.0 0.00 0.00 0.00 46 1018.4